Location: Devargunta
(16.7631°N, 80.9077°E)
Time: 12:40:14
(UTC+00:00)

USA 305 - Pass Details

Date: 19 January 2021
Orbit: 565 x 578 km, 54.0° (Epoch: 02 March)

Event Time Altitude Azimuth Distance (km) Brightness Sun altitude
Rises 23:37:57 0° 205° (SSW) 2,750 6.3 -21.5°
Reaches altitude 10° 23:40:14 10° 200° (SSW) 1,853 5.5 -21.0°
Maximum altitude 23:44:19 51° 124° (ESE) 709 3.7 -20.1°
Drops below altitude 10° 23:48:25 10° 47° (NE) 1,850 5.9 -19.1°
Sets 23:50:41 0° 43° (NE) 2,746 6.7 -18.6°
